GW0203 Weather Reports


Display with metric or nautical units.
time (UTC)temp
F
wind
direction
speed
MPH
gust
MPH
rain 1hr
in
rain 24hr
in
rain mn
in
humidity
%
barometer
mb
20260506035137 55 221 5.0 13.0 0.00 0.01 0.01 92 1012.0
20260506033634 54 213 2.0 4.0 0.00 0.01 0.01 92 1011.9
20260506032131 54 253 7.0 12.0 0.00 0.01 0.01 91 1011.9
20260506030629 55 282 2.0 11.0 0.00 0.01 0.01 90 1011.6
20260506025124 55 207 9.0 9.0 0.00 0.01 0.01 89 1011.9
20260506023621 55 180 5.0 11.0 0.00 0.01 0.01 87 1011.9
20260506022118 56 225 6.0 9.0 0.00 0.01 0.01 86 1012.2
20260506020615 56 189 2.0 16.0 0.00 0.01 0.01 84 1011.8
20260506015113 56 133 3.0 9.0 0.00 0.01 0.01 84 1011.8
20260506013611 57 212 0.0 7.0 0.00 0.01 0.01 84 1011.9
20260506012105 57 180 4.0 6.0 0.00 0.01 0.01 84 1011.8
20260506010605 56 257 2.0 6.0 0.00 0.01 0.01 85 1011.9
20260506005100 57 187 6.0 9.0 0.00 0.01 0.01 83 1011.5
20260506003556 58 217 17.0 18.0 0.00 0.01 0.01 83 1011.2
20260506002056 56 232 4.0 10.0 0.00 0.01 0.01 86 1011.0
20260506000553 55 270 1.0 9.0 0.00 0.01 0.01 87 1010.6
20260505235051 56 199 6.0 8.0 0.00 0.01 0.01 86 1010.0
20260505233548 56 195 2.0 11.0 0.00 0.01 0.01 86 1009.8
20260505232046 57 222 3.0 10.0 0.00 0.01 0.01 84 1009.8
20260505230544 57 348 2.0 9.0 0.00 0.01 0.01 84 1009.9
20260505225039 58 94 2.0 12.0 0.05 0.01 0.01 83 1010.0
20260505223536 58 48 2.0 11.0 0.00 0.00 0.00 83 1009.8
20260505222036 58 90 0.0 10.0 0.00 0.00 0.00 83 1009.7
20260505220533 58 170 8.0 12.0 0.00 0.00 0.00 83 1009.9
20260505215032 59 205 9.0 19.0 0.00 0.00 0.00 81 1009.6
20260505213530 59 249 13.0 19.0 0.00 0.00 0.00 80 1009.7
20260505212025 60 180 2.0 9.0 0.00 0.00 0.00 81 1009.7
20260505210522 61 292 2.0 8.0 0.00 0.00 0.00 77 1009.6
20260505205020 61 200 5.0 10.0 0.00 0.00 0.00 77 1009.3
20260505203517 61 179 6.0 14.0 0.00 0.00 0.00 78 1009.6
20260505202018 60 57 2.0 12.0 0.00 0.00 0.00 81 1009.6
20260505200516 61 116 4.0 14.0 0.00 0.00 0.00 78 1009.3
20260505195012 62 217 16.0 16.0 0.00 0.00 0.00 76 1009.6
20260505193507 61 188 0.0 17.0 0.00 0.00 0.00 80 1009.6
20260505192006 62 135 0.0 15.0 0.00 0.00 0.00 79 1009.8
20260505190502 62 161 7.0 18.0 0.00 0.00 0.00 77 1010.0
20260505184957 62 164 13.0 13.0 0.00 0.00 0.00 79 1009.9
20260505183454 61 213 5.0 13.0 0.00 0.00 0.00 78 1010.0
20260505181949 64 287 3.0 11.0 0.00 0.00 0.00 76 1010.2
20260505180446 65 192 4.0 10.0 0.00 0.00 0.00 74 1009.9
20260505174941 64 274 2.0 11.0 0.00 0.00 0.00 74 1010.4
20260505173437 64 259 0.0 15.0 0.00 0.00 0.00 74 1010.6
20260505171937 66 133 5.0 9.0 0.00 0.00 0.00 72 1010.9
20260505170434 67 98 3.0 8.0 0.00 0.00 0.00 72 1010.7
20260505164933 68 145 0.0 3.0 0.00 0.00 0.00 72 1010.9
20260505163432 65 209 6.0 8.0 0.00 0.00 0.00 75 1011.1
20260505161929 64 219 9.0 11.0 0.00 0.00 0.00 74 1011.0
20260505160428 64 185 11.0 14.0 0.00 0.00 0.00 75 1011.4
20260505151919 64 226 6.0 15.0 0.00 0.00 0.00 76 1011.2
20260505150416 64 245 5.0 5.0 0.00 0.00 0.00 76 1010.9
20260505140403 61 143 3.0 5.0 0.00 0.00 0.00 81 1011.3
20260505124846 57 173 0.0 9.0 0.00 0.00 0.00 87 1011.6
20260505123341 56 184 4.0 5.0 0.00 0.00 0.00 88 1011.5
20260505121837 55 181 5.0 12.0 0.00 0.00 0.00 89 1011.3
20260505120332 55 184 4.0 6.0 0.00 0.00 0.00 89 1011.4
20260505114832 54 200 4.0 8.0 0.00 0.00 0.00 90 1011.2
20260505113327 54 108 0.0 3.0 0.00 0.00 0.00 91 1011.4
20260505111827 53 247 3.0 5.0 0.00 0.00 0.00 91 1011.2
20260505110322 53 160 0.0 8.0 0.00 0.00 0.00 93 1011.2
20260505101821 51 8 0.0 3.0 0.00 0.00 0.00 95 1010.9
20260505100315 50 204 4.0 4.0 0.00 0.00 0.00 95 1010.5
20260505094815 50 177 3.0 5.0 0.00 0.00 0.00 96 1010.7
20260505093312 50 147 2.0 6.0 0.00 0.00 0.00 96 1011.0
20260505091810 50 63 3.0 6.0 0.00 0.00 0.00 96 1010.8
20260505090309 50 22 0.0 5.0 0.00 0.00 0.00 96 1011.0
20260505084807 50 193 6.0 6.0 0.00 0.00 0.00 97 1011.0
20260505083306 50 103 1.0 5.0 0.00 0.00 0.00 97 1010.9
20260505081800 50 144 6.0 6.0 0.00 0.00 0.00 97 1011.0
20260505080256 49 341 0.0 5.0 0.00 0.00 0.00 97 1011.1
20260505074752 49 129 0.0 3.0 0.00 0.00 0.00 96 1011.1
20260505073250 49 140 0.0 3.0 0.00 0.00 0.00 96 1011.2
20260505071745 50 182 0.0 4.0 0.00 0.00 0.00 96 1011.0
20260505070241 50 217 4.0 4.0 0.00 0.00 0.00 96 1011.2
20260505064737 50 225 0.0 7.0 0.00 0.00 0.00 96 1011.1
20260505063234 50 261 2.0 5.0 0.00 0.00 0.00 97 1011.2
20260505061730 49 212 5.0 7.0 0.00 0.00 0.00 97 1011.4
20260505060229 49 234 3.0 3.0 0.00 0.00 0.00 97 1011.3
20260505054729 49 212 0.0 4.0 0.00 0.00 0.00 97 1011.5
20260505053227 49 180 3.0 5.0 0.00 0.00 0.00 97 1011.4
20260505051724 49 165 2.0 3.0 0.00 0.00 0.00 97 1011.4
20260505050224 49 225 4.0 5.0 0.00 0.00 0.00 96 1011.7
20260505041711 50 180 2.0 3.0 0.00 0.00 0.00 94 1011.9
20260505040209 50 227 3.0 4.0 0.00 0.00 0.00 94 1011.7